User: anonymous   Login
Location: Spring Creek
(38.2870°N, 100.2160°W)
Time: 02:22:58
(UTC+00:00)
Language:

Cosmos 1174 - Orbit

View from above orbital plane
View from above orbital plane
View from above satellite
View from above satellite

Ground track
Ground track

The orbit data is extracted from the following two-line orbital elements,

1 11765U 80030A   21208.55137387  .00000530  00000-0  38299-4 0  9996
2 11765  66.0862 140.0619 0536319 122.9302 242.4567 14.40413906120406
Epoch (UTC): 27 July 2021 13:13:58
Eccentricity: 0.0536319
inclination: 66.0862°
perigee height: 374 km
apogee height: 1140 km
right ascension of ascending node: 140.0619°
argument of perigee: 122.9302°
revolutions per day: 14.40413906
mean anomaly at epoch: 242.4567°
orbit number at epoch: 12040

The dashed part of the orbit path shows where the satellite is in the earth's shadow,  

DLR